TimePDT,TemperatureF,Dew PointF,Humidity,Sea Level PressureIn,VisibilityMPH,Wind Direction,Wind SpeedMPH,Gust SpeedMPH,PrecipitationIn,Events,Conditions,WindDirDegrees,DateUTC
12:15 AM,42.8,35.6,76,30.23,10.0,Calm,Calm,-,N/A,,Clear,0,2012-10-05 07:15:00
12:35 AM,42.8,35.6,76,30.23,10.0,Calm,Calm,-,N/A,,Clear,0,2012-10-05 07:35:00
12:55 AM,42.8,35.6,76,30.23,10.0,Calm,Calm,-,N/A,,Clear,0,2012-10-05 07:55:00
1:15 AM,41.0,33.8,76,30.23,10.0,Calm,Calm,-,N/A,,Clear,0,2012-10-05 08:15:00
1:35 AM,42.8,35.6,76,30.24,10.0,Calm,Calm,-,N/A,,Clear,0,2012-10-05 08:35:00
1:55 AM,41.0,35.6,81,30.24,10.0,Calm,Calm,-,N/A,,Clear,0,2012-10-05 08:55:00
2:15 AM,39.2,33.8,81,30.24,10.0,Calm,Calm,-,N/A,,Clear,0,2012-10-05 09:15:00
2:35 AM,39.2,33.8,81,30.24,10.0,Calm,Calm,-,N/A,,Clear,0,2012-10-05 09:35:00
2:55 AM,39.2,33.8,81,30.23,10.0,Calm,Calm,-,N/A,,Clear,0,2012-10-05 09:55:00
3:15 AM,39.2,33.8,81,30.24,10.0,Calm,Calm,-,N/A,,Clear,0,2012-10-05 10:15:00
3:35 AM,37.4,32.0,81,30.23,10.0,Calm,Calm,-,N/A,,Clear,0,2012-10-05 10:35:00
3:55 AM,37.4,32.0,81,30.23,10.0,Calm,Calm,-,N/A,,Clear,0,2012-10-05 10:55:00
4:15 AM,37.4,33.8,87,30.23,10.0,Calm,Calm,-,N/A,,Clear,0,2012-10-05 11:15:00
4:35 AM,37.4,32.0,81,30.23,10.0,Calm,Calm,-,N/A,,Clear,0,2012-10-05 11:35:00
4:55 AM,37.4,32.0,81,30.23,10.0,Calm,Calm,-,N/A,,Clear,0,2012-10-05 11:55:00
5:15 AM,35.6,32.0,87,30.23,10.0,Calm,Calm,-,N/A,,Clear,0,2012-10-05 12:15:00
5:35 AM,37.4,33.8,87,30.22,10.0,Calm,Calm,-,N/A,,Clear,0,2012-10-05 12:35:00
5:55 AM,35.6,32.0,87,30.22,10.0,Calm,Calm,-,N/A,,Clear,0,2012-10-05 12:55:00
6:15 AM,35.6,30.2,81,30.22,10.0,Calm,Calm,-,N/A,,Clear,0,2012-10-05 13:15:00
6:35 AM,35.6,32.0,87,30.23,10.0,Calm,Calm,-,N/A,,Clear,0,2012-10-05 13:35:00
6:55 AM,35.6,30.2,81,30.23,9.0,Calm,Calm,-,N/A,,Clear,0,2012-10-05 13:55:00
7:15 AM,35.6,30.2,81,30.24,10.0,Calm,Calm,-,N/A,,Clear,0,2012-10-05 14:15:00
7:35 AM,35.6,30.2,81,30.24,10.0,Calm,Calm,-,N/A,,Clear,0,2012-10-05 14:35:00
7:55 AM,35.6,30.2,81,30.24,7.0,Calm,Calm,-,N/A,,Clear,0,2012-10-05 14:55:00
8:15 AM,35.6,30.2,81,30.25,9.0,Calm,Calm,-,N/A,,Clear,0,2012-10-05 15:15:00
8:35 AM,39.2,33.8,81,30.25,10.0,Calm,Calm,-,N/A,,Clear,0,2012-10-05 15:35:00
8:55 AM,41.0,33.8,76,30.25,10.0,Calm,Calm,-,N/A,,Clear,0,2012-10-05 15:55:00
9:35 AM,46.4,35.6,66,30.25,10.0,Calm,Calm,-,N/A,,Clear,0,2012-10-05 16:35:00
9:55 AM,48.2,35.6,62,30.25,10.0,Calm,Calm,-,N/A,,Clear,0,2012-10-05 16:55:00
10:15 AM,51.8,35.6,54,30.25,10.0,Calm,Calm,-,N/A,,Clear,0,2012-10-05 17:15:00
10:35 AM,55.4,35.6,47,30.24,10.0,North,5.8,-,N/A,,Clear,350,2012-10-05 17:35:00
10:55 AM,57.2,33.8,41,30.24,10.0,NW,5.8,-,N/A,,Clear,320,2012-10-05 17:55:00
11:35 AM,60.8,35.6,39,30.23,10.0,NNW,8.1,-,N/A,,Clear,340,2012-10-05 18:35:00
11:55 AM,60.8,35.6,39,30.23,10.0,NNW,8.1,-,N/A,,Clear,340,2012-10-05 18:55:00
12:15 PM,62.6,35.6,37,30.22,10.0,NNW,8.1,-,N/A,,Clear,330,2012-10-05 19:15:00
12:35 PM,64.4,35.6,34,30.21,10.0,NW,4.6,-,N/A,,Clear,320,2012-10-05 19:35:00
12:55 PM,66.2,33.8,30,30.20,10.0,NNW,4.6,-,N/A,,Clear,330,2012-10-05 19:55:00
1:15 PM,68.0,33.8,28,30.18,10.0,Calm,Calm,-,N/A,,Clear,0,2012-10-05 20:15:00
1:35 PM,71.6,30.2,22,30.18,4.0,East,8.1,18.4,N/A,,Clear,80,2012-10-05 20:35:00
1:55 PM,73.4,26.6,18,30.17,10.0,ESE,5.8,-,N/A,,Clear,120,2012-10-05 20:55:00
2:15 PM,73.4,26.6,18,30.17,10.0,SSE,9.2,-,N/A,,Clear,150,2012-10-05 21:15:00
2:35 PM,75.2,26.6,17,30.16,10.0,ESE,10.4,-,N/A,,Clear,110,2012-10-05 21:35:00
2:55 PM,75.2,24.8,15,30.16,10.0,SE,6.9,-,N/A,,Clear,130,2012-10-05 21:55:00
3:15 PM,75.2,24.8,15,30.14,10.0,SSE,6.9,-,N/A,,Clear,150,2012-10-05 22:15:00
3:35 PM,75.2,24.8,15,30.14,10.0,East,3.5,16.1,N/A,,Clear,100,2012-10-05 22:35:00
3:55 PM,75.2,24.8,15,30.15,5.0,ESE,6.9,20.7,N/A,,Clear,110,2012-10-05 22:55:00
4:15 PM,75.2,23.0,14,30.15,10.0,ESE,9.2,17.3,N/A,,Clear,120,2012-10-05 23:15:00
4:35 PM,75.2,23.0,14,30.14,9.0,SE,12.7,18.4,N/A,,Clear,140,2012-10-05 23:35:00
4:55 PM,73.4,23.0,15,30.14,10.0,SSE,11.5,18.4,N/A,,Clear,150,2012-10-05 23:55:00
5:15 PM,73.4,23.0,15,30.14,10.0,SE,10.4,17.3,N/A,,Clear,140,2012-10-06 00:15:00
5:35 PM,73.4,23.0,15,30.14,10.0,SE,9.2,-,N/A,,Clear,140,2012-10-06 00:35:00
5:55 PM,73.4,23.0,15,30.14,10.0,SSE,9.2,-,N/A,,Clear,150,2012-10-06 00:55:00
6:15 PM,71.6,24.8,17,30.15,10.0,Calm,Calm,-,N/A,,Clear,0,2012-10-06 01:15:00
6:35 PM,68.0,28.4,23,30.15,10.0,NE,3.5,-,N/A,,Clear,50,2012-10-06 01:35:00
6:55 PM,62.6,28.4,27,30.15,7.0,NE,4.6,-,N/A,,Clear,50,2012-10-06 01:55:00
7:15 PM,60.8,28.4,29,30.16,10.0,ENE,4.6,-,N/A,,Clear,70,2012-10-06 02:15:00
7:35 PM,60.8,28.4,29,30.16,10.0,East,5.8,-,N/A,,Clear,90,2012-10-06 02:35:00
7:55 PM,60.8,26.6,27,30.16,10.0,East,3.5,-,N/A,,Clear,80,2012-10-06 02:55:00
8:35 PM,53.6,33.8,47,30.17,10.0,Calm,Calm,-,N/A,,Clear,0,2012-10-06 03:35:00
8:55 PM,53.6,33.8,47,30.18,10.0,Calm,Calm,-,N/A,,Clear,0,2012-10-06 03:55:00
9:15 PM,50.0,30.2,47,30.18,10.0,Calm,Calm,-,N/A,,Clear,0,2012-10-06 04:15:00
9:35 PM,50.0,30.2,47,30.17,10.0,Calm,Calm,-,N/A,,Clear,0,2012-10-06 04:35:00
9:55 PM,48.2,30.2,50,30.17,10.0,Calm,Calm,-,N/A,,Clear,0,2012-10-06 04:55:00
10:15 PM,44.6,32.0,61,30.18,10.0,Calm,Calm,-,N/A,,Clear,0,2012-10-06 05:15:00
10:35 PM,46.4,32.0,57,30.18,10.0,NW,3.5,-,N/A,,Clear,310,2012-10-06 05:35:00
10:55 PM,44.6,32.0,61,30.18,10.0,Calm,Calm,-,N/A,,Clear,0,2012-10-06 05:55:00
11:15 PM,46.4,33.8,62,30.19,10.0,WNW,3.5,-,N/A,,Clear,300,2012-10-06 06:15:00
11:35 PM,44.6,32.0,61,30.19,10.0,Calm,Calm,-,N/A,,Clear,0,2012-10-06 06:35:00
11:55 PM,42.8,30.2,61,30.19,10.0,Calm,Calm,-,N/A,,Clear,0,2012-10-06 06:55:00